Time,TemperatureF,DewpointF,PressureIn,WindDirection,WindDirectionDegrees,WindSpeedMPH,WindSpeedGustMPH,Humidity,HourlyPrecipIn,Conditions,Clouds,dailyrainin,SoftwareType,DateUTC
2013-02-11 00:04:00,37.9,32.0,29.76,NW,320,0.0,0.0,79,0.00,,---,0.00,VWS V14.00,2013-02-11 08:04:00,
2013-02-11 00:09:00,37.6,31.7,29.76,NW,321,0.0,0.0,79,0.00,,---,0.00,VWS V14.00,2013-02-11 08:09:00,
2013-02-11 00:14:00,37.3,31.7,29.76,NW,321,0.0,0.0,80,0.00,,---,0.00,VWS V14.00,2013-02-11 08:14:00,
2013-02-11 00:19:00,37.2,31.6,29.76,NW,321,0.0,0.0,80,0.00,,---,0.00,VWS V14.00,2013-02-11 08:19:00,
2013-02-11 00:24:00,37.0,31.7,29.76,NW,321,0.0,0.0,81,0.00,,---,0.00,VWS V14.00,2013-02-11 08:24:00,
2013-02-11 00:29:00,37.0,31.7,29.76,NW,321,0.0,0.0,81,0.00,,---,0.00,VWS V14.00,2013-02-11 08:29:00,
2013-02-11 00:34:00,36.9,31.6,29.77,NW,321,0.0,0.0,81,0.00,,---,0.00,VWS V14.00,2013-02-11 08:34:00,
2013-02-11 00:39:00,36.6,31.3,29.77,NW,321,0.0,0.0,81,0.00,,---,0.00,VWS V14.00,2013-02-11 08:39:00,
2013-02-11 00:44:00,36.5,31.2,29.77,NW,321,0.0,0.0,81,0.00,,---,0.00,VWS V14.00,2013-02-11 08:44:00,
2013-02-11 00:49:00,36.3,31.3,29.77,NW,321,0.0,0.0,82,0.00,,---,0.00,VWS V14.00,2013-02-11 08:49:00,
2013-02-11 00:54:00,36.2,31.2,29.77,NW,321,0.0,0.0,82,0.00,,---,0.00,VWS V14.00,2013-02-11 08:54:00,
2013-02-11 00:59:00,36.0,31.4,29.77,NW,321,0.0,0.0,83,0.00,,---,0.00,VWS V14.00,2013-02-11 08:59:00,
2013-02-11 01:04:00,35.9,31.2,29.76,NW,321,0.0,0.0,83,0.00,,---,0.00,VWS V14.00,2013-02-11 09:04:00,
2013-02-11 01:09:00,35.8,31.1,29.76,NW,321,0.0,0.0,83,0.00,,---,0.00,VWS V14.00,2013-02-11 09:09:00,
2013-02-11 01:14:00,35.6,31.0,29.76,NW,321,0.0,0.0,83,0.00,,---,0.00,VWS V14.00,2013-02-11 09:14:00,
2013-02-11 01:19:00,35.6,31.2,29.77,NW,321,0.0,0.0,84,0.00,,---,0.00,VWS V14.00,2013-02-11 09:19:00,
2013-02-11 01:24:00,35.8,31.1,29.77,NW,321,0.0,0.0,83,0.00,,---,0.00,VWS V14.00,2013-02-11 09:24:00,
2013-02-11 01:29:00,35.8,31.1,29.77,NW,321,0.0,0.0,83,0.00,,---,0.00,VWS V14.00,2013-02-11 09:29:00,
2013-02-11 01:34:00,35.6,31.0,29.77,NW,321,0.0,0.0,83,0.00,,---,0.00,VWS V14.00,2013-02-11 09:34:00,
2013-02-11 01:39:00,35.5,30.6,29.77,NW,321,0.0,0.0,82,0.00,,---,0.00,VWS V14.00,2013-02-11 09:39:00,
2013-02-11 01:44:00,35.5,30.6,29.77,NW,321,0.0,0.0,82,0.00,,---,0.00,VWS V14.00,2013-02-11 09:44:00,
2013-02-11 01:49:00,35.2,30.3,29.77,NW,321,0.0,0.0,82,0.00,,---,0.00,VWS V14.00,2013-02-11 09:49:00,
2013-02-11 01:54:00,35.0,30.1,29.77,NW,321,0.0,0.0,82,0.00,,---,0.00,VWS V14.00,2013-02-11 09:54:00,
2013-02-11 01:59:00,35.2,30.0,29.77,NW,321,0.0,0.0,81,0.00,,---,0.00,VWS V14.00,2013-02-11 09:59:00,
2013-02-11 02:04:00,35.2,29.7,29.77,NW,321,0.0,0.0,80,0.00,,---,0.00,VWS V14.00,2013-02-11 10:04:00,
2013-02-11 02:09:00,35.0,29.5,29.77,NW,321,0.0,0.0,80,0.00,,---,0.00,VWS V14.00,2013-02-11 10:09:00,
2013-02-11 02:14:00,34.7,29.5,29.77,NW,321,0.0,0.0,81,0.00,,---,0.00,VWS V14.00,2013-02-11 10:14:00,
2013-02-11 02:19:00,34.6,29.4,29.78,NW,321,0.0,0.0,81,0.00,,---,0.00,VWS V14.00,2013-02-11 10:19:00,
2013-02-11 02:24:00,34.4,29.2,29.78,NW,321,0.0,0.0,81,0.00,,---,0.00,VWS V14.00,2013-02-11 10:24:00,
2013-02-11 02:29:00,34.4,29.2,29.78,NW,324,0.0,0.0,81,0.00,,---,0.00,VWS V14.00,2013-02-11 10:29:00,
2013-02-11 02:34:00,34.4,29.2,29.78,NW,324,0.0,0.0,81,0.00,,---,0.00,VWS V14.00,2013-02-11 10:34:00,
2013-02-11 02:39:00,34.3,28.8,29.78,NW,324,0.0,0.0,80,0.00,,---,0.00,VWS V14.00,2013-02-11 10:39:00,
2013-02-11 02:44:00,34.3,28.8,29.78,NW,324,0.0,0.0,80,0.00,,---,0.00,VWS V14.00,2013-02-11 10:44:00,
2013-02-11 02:49:00,34.1,28.6,29.78,NW,324,0.0,0.0,80,0.00,,---,0.00,VWS V14.00,2013-02-11 10:49:00,
2013-02-11 02:54:00,34.0,28.8,29.78,NW,324,0.0,0.0,81,0.00,,---,0.00,VWS V14.00,2013-02-11 10:54:00,
2013-02-11 02:59:00,33.7,28.5,29.78,NW,324,0.0,0.0,81,0.00,,---,0.00,VWS V14.00,2013-02-11 10:59:00,
2013-02-11 03:04:00,33.8,28.6,29.77,NW,324,0.0,0.0,81,0.00,,---,0.00,VWS V14.00,2013-02-11 11:04:00,
2013-02-11 03:09:00,33.7,28.5,29.77,NW,324,0.0,0.0,81,0.00,,---,0.00,VWS V14.00,2013-02-11 11:09:00,
2013-02-11 03:14:00,33.7,28.5,29.77,NW,324,0.0,0.0,81,0.00,,---,0.00,VWS V14.00,2013-02-11 11:14:00,
2013-02-11 03:19:00,33.5,28.0,29.77,NW,324,0.0,0.0,80,0.00,,---,0.00,VWS V14.00,2013-02-11 11:19:00,
2013-02-11 03:24:00,33.4,27.9,29.77,NW,324,0.0,0.0,80,0.00,,---,0.00,VWS V14.00,2013-02-11 11:24:00,
2013-02-11 03:29:00,33.4,27.9,29.77,NW,324,0.0,0.0,80,0.00,,---,0.00,VWS V14.00,2013-02-11 11:29:00,
2013-02-11 03:34:00,33.2,27.7,29.77,NW,323,2.0,2.0,80,0.00,,---,0.00,VWS V14.00,2013-02-11 11:34:00,
2013-02-11 03:39:00,33.2,28.0,29.77,NW,323,0.0,0.0,81,0.00,,---,0.00,VWS V14.00,2013-02-11 11:39:00,
2013-02-11 03:44:00,33.1,27.9,29.77,NW,323,0.0,0.0,81,0.00,,---,0.00,VWS V14.00,2013-02-11 11:44:00,
2013-02-11 03:49:00,32.9,27.7,29.78,NW,323,0.0,0.0,81,0.00,,---,0.00,VWS V14.00,2013-02-11 11:49:00,
2013-02-11 03:54:00,32.8,27.6,29.78,NW,323,0.0,0.0,81,0.00,,---,0.00,VWS V14.00,2013-02-11 11:54:00,
2013-02-11 03:59:00,32.7,27.5,29.78,NW,323,0.0,0.0,81,0.00,,---,0.00,VWS V14.00,2013-02-11 11:59:00,
2013-02-11 04:04:00,32.5,27.3,29.78,NW,323,0.0,0.0,81,0.00,,---,0.00,VWS V14.00,2013-02-11 12:04:00,
2013-02-11 04:09:00,32.4,27.5,29.78,NW,323,0.0,0.0,82,0.00,,---,0.00,VWS V14.00,2013-02-11 12:09:00,
2013-02-11 04:14:00,32.2,27.3,29.78,NW,323,0.0,0.0,82,0.00,,---,0.00,VWS V14.00,2013-02-11 12:14:00,
2013-02-11 04:19:00,32.2,27.6,29.79,NW,323,0.0,0.0,83,0.00,,---,0.00,VWS V14.00,2013-02-11 12:19:00,
2013-02-11 04:24:00,32.4,27.8,29.79,NW,323,0.0,0.0,83,0.00,,---,0.00,VWS V14.00,2013-02-11 12:24:00,
2013-02-11 04:29:00,32.5,28.2,29.79,NW,324,0.0,0.0,84,0.00,,---,0.00,VWS V14.00,2013-02-11 12:29:00,
2013-02-11 04:34:00,32.4,27.8,29.79,NW,324,0.0,0.0,83,0.00,,---,0.00,VWS V14.00,2013-02-11 12:34:00,
2013-02-11 04:39:00,32.4,27.8,29.79,NW,324,0.0,0.0,83,0.00,,---,0.00,VWS V14.00,2013-02-11 12:39:00,
2013-02-11 04:44:00,32.2,27.6,29.79,NW,324,0.0,0.0,83,0.00,,---,0.00,VWS V14.00,2013-02-11 12:44:00,
2013-02-11 04:49:00,32.2,27.9,29.79,NW,324,0.0,0.0,84,0.00,,---,0.00,VWS V14.00,2013-02-11 12:49:00,
2013-02-11 04:54:00,32.2,27.9,29.79,NW,324,0.0,0.0,84,0.00,,---,0.00,VWS V14.00,2013-02-11 12:54:00,
2013-02-11 04:59:00,32.2,27.6,29.79,NW,324,0.0,0.0,83,0.00,,---,0.00,VWS V14.00,2013-02-11 12:59:00,
2013-02-11 05:04:00,32.1,27.8,29.80,NW,324,0.0,0.0,84,0.00,,---,0.00,VWS V14.00,2013-02-11 13:04:00,
2013-02-11 05:09:00,31.9,27.6,29.80,NW,324,0.0,0.0,84,0.00,,---,0.00,VWS V14.00,2013-02-11 13:09:00,
2013-02-11 05:14:00,31.9,27.6,29.80,NW,324,0.0,0.0,84,0.00,,---,0.00,VWS V14.00,2013-02-11 13:14:00,
2013-02-11 05:19:00,31.8,27.5,29.81,NW,324,0.0,0.0,84,0.00,,---,0.00,VWS V14.00,2013-02-11 13:19:00,
2013-02-11 05:24:00,31.8,27.5,29.81,NW,324,0.0,0.0,84,0.00,,---,0.00,VWS V14.00,2013-02-11 13:24:00,
2013-02-11 05:29:00,31.6,27.3,29.81,NW,324,0.0,0.0,84,0.00,,---,0.00,VWS V14.00,2013-02-11 13:29:00,
2013-02-11 05:34:00,31.5,27.2,29.82,NW,324,0.0,0.0,84,0.00,,---,0.00,VWS V14.00,2013-02-11 13:34:00,
2013-02-11 05:39:00,31.3,27.3,29.82,NW,324,0.0,0.0,85,0.00,,---,0.00,VWS V14.00,2013-02-11 13:39:00,
2013-02-11 05:44:00,31.3,27.3,29.82,NW,324,0.0,0.0,85,0.00,,---,0.00,VWS V14.00,2013-02-11 13:44:00,
2013-02-11 05:49:00,31.2,27.2,29.82,NW,324,0.0,0.0,85,0.00,,---,0.00,VWS V14.00,2013-02-11 13:49:00,
2013-02-11 05:54:00,31.0,27.0,29.82,NW,324,0.0,0.0,85,0.00,,---,0.00,VWS V14.00,2013-02-11 13:54:00,
2013-02-11 05:59:00,30.9,26.9,29.82,NW,324,0.0,0.0,85,0.00,,---,0.00,VWS V14.00,2013-02-11 13:59:00,
2013-02-11 06:04:00,31.0,27.0,29.82,NW,324,0.0,0.0,85,0.00,,---,0.00,VWS V14.00,2013-02-11 14:04:00,
2013-02-11 06:09:00,31.2,27.2,29.82,NW,324,0.0,0.0,85,0.00,,---,0.00,VWS V14.00,2013-02-11 14:09:00,
2013-02-11 06:14:00,31.2,27.2,29.82,NW,324,0.0,0.0,85,0.00,,---,0.00,VWS V14.00,2013-02-11 14:14:00,
2013-02-11 06:19:00,31.0,27.0,29.83,NW,324,0.0,0.0,85,0.00,,---,0.00,VWS V14.00,2013-02-11 14:19:00,
2013-02-11 06:24:00,31.0,27.0,29.83,NW,324,0.0,0.0,85,0.00,,---,0.00,VWS V14.00,2013-02-11 14:24:00,
2013-02-11 06:29:00,31.2,27.2,29.83,NW,324,0.0,0.0,85,0.00,,---,0.00,VWS V14.00,2013-02-11 14:29:00,
2013-02-11 06:34:00,31.2,26.9,29.84,NW,324,0.0,1.0,84,0.00,,---,0.00,VWS V14.00,2013-02-11 14:34:00,
2013-02-11 06:39:00,31.2,27.2,29.84,NW,324,0.0,0.0,85,0.00,,---,0.00,VWS V14.00,2013-02-11 14:39:00,
2013-02-11 06:44:00,31.2,27.2,29.84,NW,324,0.0,0.0,85,0.00,,---,0.00,VWS V14.00,2013-02-11 14:44:00,
2013-02-11 06:49:00,31.2,27.2,29.84,NW,324,0.0,0.0,85,0.00,,---,0.00,VWS V14.00,2013-02-11 14:49:00,
2013-02-11 06:54:00,31.2,27.2,29.84,NW,324,0.0,1.0,85,0.00,,---,0.00,VWS V14.00,2013-02-11 14:54:00,
2013-02-11 06:59:00,31.2,27.2,29.84,NW,324,0.0,0.0,85,0.00,,---,0.00,VWS V14.00,2013-02-11 14:59:00,
2013-02-11 07:04:00,31.0,27.0,29.85,NW,324,0.0,0.0,85,0.00,,---,0.00,VWS V14.00,2013-02-11 15:04:00,
2013-02-11 07:09:00,31.0,27.0,29.85,NW,324,0.0,0.0,85,0.00,,---,0.00,VWS V14.00,2013-02-11 15:09:00,
2013-02-11 07:14:00,30.9,26.9,29.85,NW,324,0.0,0.0,85,0.00,,---,0.00,VWS V14.00,2013-02-11 15:14:00,
2013-02-11 07:19:00,30.9,27.2,29.85,NW,324,0.0,0.0,86,0.00,,---,0.00,VWS V14.00,2013-02-11 15:19:00,
2013-02-11 07:24:00,30.9,27.2,29.85,NW,324,0.0,0.0,86,0.00,,---,0.00,VWS V14.00,2013-02-11 15:24:00,
2013-02-11 07:29:00,30.9,27.2,29.85,NW,324,0.0,0.0,86,0.00,,---,0.00,VWS V14.00,2013-02-11 15:29:00,
2013-02-11 07:34:00,30.9,27.2,29.85,NW,324,0.0,0.0,86,0.00,,---,0.00,VWS V14.00,2013-02-11 15:34:00,
2013-02-11 07:38:00,30.9,27.2,29.85,NW,324,0.0,0.0,86,0.00,,---,0.00,VWS V14.00,2013-02-11 15:38:00,
2013-02-11 07:43:00,31.2,27.5,29.85,NW,324,0.0,0.0,86,0.00,,---,0.00,VWS V14.00,2013-02-11 15:43:00,
2013-02-11 07:48:00,31.5,28.1,29.85,NW,324,0.0,0.0,87,0.00,,---,0.00,VWS V14.00,2013-02-11 15:48:00,
2013-02-11 07:53:00,31.8,28.4,29.85,NW,324,0.0,0.0,87,0.00,,---,0.00,VWS V14.00,2013-02-11 15:53:00,
2013-02-11 07:58:00,32.1,28.7,29.85,NW,324,0.0,0.0,87,0.00,,---,0.00,VWS V14.00,2013-02-11 15:58:00,
2013-02-11 08:03:00,32.5,28.8,29.87,NW,324,0.0,0.0,86,0.00,,---,0.00,VWS V14.00,2013-02-11 16:03:00,
2013-02-11 08:08:00,32.8,29.1,29.87,NW,324,0.0,0.0,86,0.00,,---,0.00,VWS V14.00,2013-02-11 16:08:00,
2013-02-11 08:13:00,33.4,29.7,29.87,NW,324,0.0,0.0,86,0.00,,---,0.00,VWS V14.00,2013-02-11 16:13:00,
2013-02-11 08:18:00,34.0,29.7,29.87,NW,324,0.0,0.0,84,0.00,,---,0.00,VWS V14.00,2013-02-11 16:18:00,
2013-02-11 08:23:00,34.7,30.1,29.87,NW,324,0.0,0.0,83,0.00,,---,0.00,VWS V14.00,2013-02-11 16:23:00,
2013-02-11 08:28:00,35.2,30.3,29.87,NW,324,0.0,0.0,82,0.00,,---,0.00,VWS V14.00,2013-02-11 16:28:00,
2013-02-11 08:33:00,35.8,30.5,29.87,NW,324,0.0,0.0,81,0.00,,---,0.00,VWS V14.00,2013-02-11 16:33:00,
2013-02-11 08:38:00,36.6,30.7,29.87,NW,324,0.0,1.0,79,0.00,,---,0.00,VWS V14.00,2013-02-11 16:38:00,
2013-02-11 08:43:00,37.6,31.4,29.87,NW,324,0.0,0.0,78,0.00,,---,0.00,VWS V14.00,2013-02-11 16:43:00,
2013-02-11 08:48:00,38.5,31.6,29.88,NW,324,0.0,0.0,76,0.00,,---,0.00,VWS V14.00,2013-02-11 16:48:00,
2013-02-11 08:53:00,39.3,31.7,29.88,NW,324,0.0,0.0,74,0.00,,---,0.00,VWS V14.00,2013-02-11 16:53:00,
2013-02-11 08:58:00,40.3,32.3,29.88,NW,324,0.0,0.0,73,0.00,,---,0.00,VWS V14.00,2013-02-11 16:58:00,
2013-02-11 09:03:00,41.8,33.1,29.88,NW,324,0.0,0.0,71,0.00,,---,0.00,VWS V14.00,2013-02-11 17:03:00,
2013-02-11 09:08:00,43.8,33.6,29.88,NW,324,0.0,0.0,67,0.00,,---,0.00,VWS V14.00,2013-02-11 17:08:00,
2013-02-11 09:13:00,44.5,33.5,29.88,NW,323,0.0,4.0,65,0.00,,---,0.00,VWS V14.00,2013-02-11 17:13:00,
2013-02-11 09:18:00,45.4,34.3,29.89,NW,323,0.0,1.0,65,0.00,,---,0.00,VWS V14.00,2013-02-11 17:18:00,
2013-02-11 09:23:00,46.4,34.5,29.89,NW,321,4.0,4.0,63,0.00,,---,0.00,VWS V14.00,2013-02-11 17:23:00,
2013-02-11 09:28:00,46.4,34.5,29.89,NW,314,1.0,5.0,63,0.00,,---,0.00,VWS V14.00,2013-02-11 17:28:00,
2013-02-11 09:33:00,46.5,34.2,29.90,SW,233,4.0,6.0,62,0.00,,---,0.00,VWS V14.00,2013-02-11 17:33:00,
2013-02-11 09:38:00,46.7,34.4,29.90,West,266,4.0,6.0,62,0.00,,---,0.00,VWS V14.00,2013-02-11 17:38:00,
2013-02-11 09:43:00,46.8,34.5,29.90,WSW,242,4.0,6.0,62,0.00,,---,0.00,VWS V14.00,2013-02-11 17:43:00,
2013-02-11 09:48:00,47.0,34.7,29.90,WSW,239,2.0,7.0,62,0.00,,---,0.00,VWS V14.00,2013-02-11 17:48:00,
2013-02-11 09:53:00,47.1,34.8,29.90,WSW,241,0.0,7.0,62,0.00,,---,0.00,VWS V14.00,2013-02-11 17:53:00,
2013-02-11 09:58:00,47.6,34.8,29.90,WSW,254,4.0,4.0,61,0.00,,---,0.00,VWS V14.00,2013-02-11 17:58:00,
2013-02-11 10:03:00,47.9,34.7,29.91,West,268,1.0,6.0,60,0.00,,---,0.00,VWS V14.00,2013-02-11 18:03:00,
2013-02-11 10:08:00,48.3,35.1,29.91,West,268,3.0,3.0,60,0.00,,---,0.00,VWS V14.00,2013-02-11 18:08:00,
2013-02-11 10:13:00,48.5,35.3,29.91,West,273,3.0,6.0,60,0.00,,---,0.00,VWS V14.00,2013-02-11 18:13:00,
2013-02-11 10:18:00,48.6,35.4,29.91,West,273,0.0,6.0,60,0.00,,---,0.00,VWS V14.00,2013-02-11 18:18:00,
2013-02-11 10:23:00,49.5,35.8,29.91,West,273,0.0,1.0,59,0.00,,---,0.00,VWS V14.00,2013-02-11 18:23:00,
2013-02-11 10:28:00,50.4,35.8,29.91,SSW,212,2.0,5.0,57,0.00,,---,0.00,VWS V14.00,2013-02-11 18:28:00,
2013-02-11 10:33:00,49.9,35.3,29.91,SSW,210,2.0,7.0,57,0.00,,---,0.00,VWS V14.00,2013-02-11 18:33:00,
2013-02-11 10:38:00,50.1,35.5,29.91,SSW,210,2.0,6.0,57,0.00,,---,0.00,VWS V14.00,2013-02-11 18:38:00,
2013-02-11 10:43:00,50.2,36.4,29.91,SSW,208,0.0,6.0,59,0.00,,---,0.00,VWS V14.00,2013-02-11 18:43:00,
2013-02-11 10:48:00,51.3,36.2,29.91,SSW,206,0.0,4.0,56,0.00,,---,0.00,VWS V14.00,2013-02-11 18:48:00,
2013-02-11 10:53:00,51.6,36.0,29.91,SSW,212,0.0,6.0,55,0.00,,---,0.00,VWS V14.00,2013-02-11 18:53:00,
2013-02-11 10:58:00,51.6,36.4,29.91,SW,229,0.0,5.0,56,0.00,,---,0.00,VWS V14.00,2013-02-11 18:58:00,
2013-02-11 11:03:00,51.7,36.5,29.91,SW,221,4.0,6.0,56,0.00,,---,0.00,VWS V14.00,2013-02-11 19:03:00,
2013-02-11 11:08:00,51.7,36.1,29.91,SSE,160,0.0,5.0,55,0.00,,---,0.00,VWS V14.00,2013-02-11 19:08:00,
2013-02-11 11:13:00,52.2,35.6,29.91,SSW,207,4.0,5.0,53,0.00,,---,0.00,VWS V14.00,2013-02-11 19:13:00,
2013-02-11 11:18:00,52.2,36.1,29.90,SSW,207,0.0,4.0,54,0.00,,---,0.00,VWS V14.00,2013-02-11 19:18:00,
2013-02-11 11:23:00,52.9,36.7,29.90,SSW,209,0.0,5.0,54,0.00,,---,0.00,VWS V14.00,2013-02-11 19:23:00,
2013-02-11 11:28:00,53.3,36.1,29.90,SSW,193,0.0,5.0,52,0.00,,---,0.00,VWS V14.00,2013-02-11 19:28:00,
2013-02-11 11:33:00,53.6,35.9,29.90,SSW,208,0.0,5.0,51,0.00,,---,0.00,VWS V14.00,2013-02-11 19:33:00,
2013-02-11 11:38:00,53.5,36.3,29.90,SSW,194,1.0,6.0,52,0.00,,---,0.00,VWS V14.00,2013-02-11 19:38:00,
2013-02-11 11:43:00,53.3,35.2,29.90,SW,234,5.0,7.0,50,0.00,,---,0.00,VWS V14.00,2013-02-11 19:43:00,
2013-02-11 11:48:00,53.1,35.0,29.90,WSW,244,1.0,5.0,50,0.00,,---,0.00,VWS V14.00,2013-02-11 19:48:00,
2013-02-11 11:53:00,52.9,34.8,29.90,SW,220,3.0,7.0,50,0.00,,---,0.00,VWS V14.00,2013-02-11 19:53:00,
2013-02-11 11:58:00,52.9,34.8,29.90,SW,220,0.0,5.0,50,0.00,,---,0.00,VWS V14.00,2013-02-11 19:58:00,
2013-02-11 12:03:00,54.1,33.8,29.88,SE,132,0.0,4.0,46,0.00,,---,0.00,VWS V14.00,2013-02-11 20:03:00,
2013-02-11 12:08:00,54.7,34.9,29.88,WSW,250,1.0,5.0,47,0.00,,---,0.00,VWS V14.00,2013-02-11 20:08:00,
2013-02-11 12:13:00,54.8,35.0,29.88,WSW,249,0.0,5.0,47,0.00,,---,0.00,VWS V14.00,2013-02-11 20:13:00,
2013-02-11 12:18:00,55.4,34.4,29.88,South,184,0.0,6.0,45,0.00,,---,0.00,VWS V14.00,2013-02-11 20:18:00,
2013-02-11 12:23:00,55.6,34.0,29.88,SSE,164,3.0,5.0,44,0.00,,---,0.00,VWS V14.00,2013-02-11 20:23:00,
2013-02-11 12:28:00,55.4,33.9,29.88,SSW,204,2.0,5.0,44,0.00,,---,0.00,VWS V14.00,2013-02-11 20:28:00,
2013-02-11 12:33:00,55.9,33.2,29.87,SSW,204,0.0,1.0,42,0.00,,---,0.00,VWS V14.00,2013-02-11 20:33:00,
2013-02-11 12:38:00,56.0,33.8,29.87,SE,142,4.0,7.0,43,0.00,,---,0.00,VWS V14.00,2013-02-11 20:38:00,
2013-02-11 12:43:00,56.5,34.3,29.87,SE,136,2.0,5.0,43,0.00,,---,0.00,VWS V14.00,2013-02-11 20:43:00,
2013-02-11 12:48:00,56.9,34.1,29.86,SSW,212,1.0,6.0,42,0.00,,---,0.00,VWS V14.00,2013-02-11 20:48:00,
2013-02-11 12:53:00,56.9,33.5,29.86,SSE,167,0.0,6.0,41,0.00,,---,0.00,VWS V14.00,2013-02-11 20:53:00,
2013-02-11 12:58:00,57.2,33.7,29.86,West,260,3.0,6.0,41,0.00,,---,0.00,VWS V14.00,2013-02-11 20:58:00,
2013-02-11 13:03:00,57.0,34.2,29.86,SW,225,2.0,7.0,42,0.00,,---,0.00,VWS V14.00,2013-02-11 21:03:00,
2013-02-11 13:08:00,56.9,33.5,29.86,SW,232,1.0,9.0,41,0.00,,---,0.00,VWS V14.00,2013-02-11 21:08:00,
2013-02-11 13:13:00,56.9,33.5,29.86,SE,141,0.0,6.0,41,0.00,,---,0.00,VWS V14.00,2013-02-11 21:13:00,
2013-02-11 13:18:00,57.5,34.0,29.86,South,187,5.0,6.0,41,0.00,,---,0.00,VWS V14.00,2013-02-11 21:18:00,
2013-02-11 13:23:00,57.5,34.0,29.86,SSE,162,0.0,7.0,41,0.00,,---,0.00,VWS V14.00,2013-02-11 21:23:00,
2013-02-11 13:28:00,58.0,33.2,29.86,SE,139,1.0,6.0,39,0.00,,---,0.00,VWS V14.00,2013-02-11 21:28:00,
2013-02-11 13:33:00,58.1,33.9,29.86,ESE,113,1.0,4.0,40,0.00,,---,0.00,VWS V14.00,2013-02-11 21:33:00,
2013-02-11 13:38:00,58.3,34.7,29.86,SSE,153,0.0,6.0,41,0.00,,---,0.00,VWS V14.00,2013-02-11 21:38:00,
2013-02-11 13:43:00,58.3,34.7,29.86,SSW,209,4.0,5.0,41,0.00,,---,0.00,VWS V14.00,2013-02-11 21:43:00,
2013-02-11 13:48:00,58.3,34.1,29.86,South,181,7.0,7.0,40,0.00,,---,0.00,VWS V14.00,2013-02-11 21:48:00,
2013-02-11 13:53:00,58.3,34.1,29.86,SE,133,1.0,6.0,40,0.00,,---,0.00,VWS V14.00,2013-02-11 21:53:00,
2013-02-11 13:58:00,58.4,34.8,29.86,SSE,148,1.0,5.0,41,0.00,,---,0.00,VWS V14.00,2013-02-11 21:58:00,
2013-02-11 14:03:00,58.4,33.6,29.85,SSW,193,0.0,7.0,39,0.00,,---,0.00,VWS V14.00,2013-02-11 22:03:00,
2013-02-11 14:08:00,58.6,33.7,29.85,ENE,73,3.0,5.0,39,0.00,,---,0.00,VWS V14.00,2013-02-11 22:08:00,
2013-02-11 14:13:00,58.7,33.2,29.85,ENE,70,0.0,3.0,38,0.00,,---,0.00,VWS V14.00,2013-02-11 22:13:00,
2013-02-11 14:18:00,59.0,33.5,29.85,East,91,0.0,4.0,38,0.00,,---,0.00,VWS V14.00,2013-02-11 22:18:00,
2013-02-11 14:23:00,59.3,33.0,29.85,South,175,0.0,7.0,37,0.00,,---,0.00,VWS V14.00,2013-02-11 22:23:00,
2013-02-11 14:28:00,59.8,33.5,29.85,South,175,0.0,4.0,37,0.00,,---,0.00,VWS V14.00,2013-02-11 22:28:00,
2013-02-11 14:33:00,59.6,32.6,29.85,South,181,3.0,6.0,36,0.00,,---,0.00,VWS V14.00,2013-02-11 22:33:00,
2013-02-11 14:38:00,59.6,33.3,29.85,South,188,1.0,5.0,37,0.00,,---,0.00,VWS V14.00,2013-02-11 22:38:00,
2013-02-11 14:43:00,59.6,32.6,29.85,SSE,168,0.0,6.0,36,0.00,,---,0.00,VWS V14.00,2013-02-11 22:43:00,
2013-02-11 14:48:00,59.8,32.1,29.85,SSE,168,0.0,1.0,35,0.00,,---,0.00,VWS V14.00,2013-02-11 22:48:00,
2013-02-11 14:53:00,59.9,32.9,29.85,SSE,162,1.0,5.0,36,0.00,,---,0.00,VWS V14.00,2013-02-11 22:53:00,
2013-02-11 14:58:00,59.6,31.9,29.85,SE,134,0.0,4.0,35,0.00,,---,0.00,VWS V14.00,2013-02-11 22:58:00,
2013-02-11 15:03:00,59.9,32.2,29.85,SW,219,2.0,7.0,35,0.00,,---,0.00,VWS V14.00,2013-02-11 23:03:00,
2013-02-11 15:08:00,60.2,32.5,29.85,South,182,0.0,7.0,35,0.00,,---,0.00,VWS V14.00,2013-02-11 23:08:00,
2013-02-11 15:13:00,60.1,32.4,29.85,ESE,114,0.0,4.0,35,0.00,,---,0.00,VWS V14.00,2013-02-11 23:13:00,
2013-02-11 15:18:00,60.1,32.4,29.85,SSW,195,1.0,5.0,35,0.00,,---,0.00,VWS V14.00,2013-02-11 23:18:00,
2013-02-11 15:23:00,60.1,33.1,29.85,SW,229,0.0,5.0,36,0.00,,---,0.00,VWS V14.00,2013-02-11 23:23:00,
2013-02-11 15:28:00,60.4,32.7,29.85,South,179,3.0,7.0,35,0.00,,---,0.00,VWS V14.00,2013-02-11 23:28:00,
2013-02-11 15:33:00,59.8,33.5,29.85,SSW,205,1.0,7.0,37,0.00,,---,0.00,VWS V14.00,2013-02-11 23:33:00,
2013-02-11 15:38:00,59.9,32.9,29.85,South,185,0.0,2.0,36,0.00,,---,0.00,VWS V14.00,2013-02-11 23:38:00,
2013-02-11 15:43:00,60.4,32.7,29.85,SSW,212,5.0,6.0,35,0.00,,---,0.00,VWS V14.00,2013-02-11 23:43:00,
2013-02-11 15:48:00,60.4,33.3,29.85,SW,214,0.0,5.0,36,0.00,,---,0.00,VWS V14.00,2013-02-11 23:48:00,
2013-02-11 15:53:00,60.4,32.7,29.85,SSW,210,0.0,7.0,35,0.00,,---,0.00,VWS V14.00,2013-02-11 23:53:00,
2013-02-11 15:58:00,60.4,32.7,29.85,SSW,197,0.0,5.0,35,0.00,,---,0.00,VWS V14.00,2013-02-11 23:58:00,
2013-02-11 16:03:00,60.2,33.2,29.86,South,181,0.0,5.0,36,0.00,,---,0.00,VWS V14.00,2013-02-12 00:03:00,
2013-02-11 16:08:00,60.1,33.8,29.86,South,171,1.0,5.0,37,0.00,,---,0.00,VWS V14.00,2013-02-12 00:08:00,
2013-02-11 16:13:00,60.1,33.1,29.86,SW,216,1.0,6.0,36,0.00,,---,0.00,VWS V14.00,2013-02-12 00:13:00,
2013-02-11 16:18:00,59.9,32.9,29.86,SE,141,0.0,6.0,36,0.00,,---,0.00,VWS V14.00,2013-02-12 00:18:00,
2013-02-11 16:23:00,59.6,32.6,29.86,SE,127,1.0,4.0,36,0.00,,---,0.00,VWS V14.00,2013-02-12 00:23:00,
2013-02-11 16:28:00,59.3,32.4,29.86,ESE,108,1.0,4.0,36,0.00,,---,0.00,VWS V14.00,2013-02-12 00:28:00,
2013-02-11 16:33:00,58.7,33.2,29.86,East,86,2.0,4.0,38,0.00,,---,0.00,VWS V14.00,2013-02-12 00:33:00,
2013-02-11 16:38:00,58.4,32.9,29.86,East,90,1.0,5.0,38,0.00,,---,0.00,VWS V14.00,2013-02-12 00:38:00,
2013-02-11 16:43:00,58.3,32.8,29.86,ESE,122,0.0,2.0,38,0.00,,---,0.00,VWS V14.00,2013-02-12 00:43:00,
2013-02-11 16:48:00,58.1,33.3,29.86,ESE,105,0.0,5.0,39,0.00,,---,0.00,VWS V14.00,2013-02-12 00:48:00,
2013-02-11 16:53:00,58.3,33.5,29.86,SSE,149,0.0,4.0,39,0.00,,---,0.00,VWS V14.00,2013-02-12 00:53:00,
2013-02-11 16:58:00,58.1,33.3,29.86,SE,141,0.0,2.0,39,0.00,,---,0.00,VWS V14.00,2013-02-12 00:58:00,
2013-02-11 17:03:00,57.6,33.5,29.86,East,84,0.0,1.0,40,0.00,,---,0.00,VWS V14.00,2013-02-12 01:03:00,
2013-02-11 17:08:00,57.6,33.5,29.86,ESE,108,1.0,1.0,40,0.00,,---,0.00,VWS V14.00,2013-02-12 01:08:00,
2013-02-11 17:13:00,57.2,33.7,29.86,ESE,108,0.0,3.0,41,0.00,,---,0.00,VWS V14.00,2013-02-12 01:13:00,
2013-02-11 17:18:00,56.7,33.9,29.86,ESE,108,0.0,1.0,42,0.00,,---,0.00,VWS V14.00,2013-02-12 01:18:00,
2013-02-11 17:23:00,56.7,33.9,29.86,ESE,108,0.0,0.0,42,0.00,,---,0.00,VWS V14.00,2013-02-12 01:23:00,
2013-02-11 17:28:00,56.5,34.3,29.86,ESE,108,0.0,0.0,43,0.00,,---,0.00,VWS V14.00,2013-02-12 01:28:00,
2013-02-11 17:33:00,55.9,34.3,29.87,ESE,108,0.0,1.0,44,0.00,,---,0.00,VWS V14.00,2013-02-12 01:33:00,
2013-02-11 17:38:00,55.4,34.4,29.87,ESE,108,0.0,0.0,45,0.00,,---,0.00,VWS V14.00,2013-02-12 01:38:00,
2013-02-11 17:43:00,55.0,34.6,29.87,ESE,108,0.0,0.0,46,0.00,,---,0.00,VWS V14.00,2013-02-12 01:43:00,
2013-02-11 17:48:00,54.4,34.6,29.87,ESE,108,0.0,0.0,47,0.00,,---,0.00,VWS V14.00,2013-02-12 01:48:00,
2013-02-11 17:53:00,53.8,35.1,29.87,ESE,108,0.0,0.0,49,0.00,,---,0.00,VWS V14.00,2013-02-12 01:53:00,
2013-02-11 17:58:00,53.2,35.1,29.87,ESE,108,0.0,0.0,50,0.00,,---,0.00,VWS V14.00,2013-02-12 01:58:00,
2013-02-11 18:03:00,52.8,35.2,29.88,ESE,108,0.0,0.0,51,0.00,,---,0.00,VWS V14.00,2013-02-12 02:03:00,
2013-02-11 18:08:00,52.3,35.2,29.88,ESE,108,0.0,0.0,52,0.00,,---,0.00,VWS V14.00,2013-02-12 02:08:00,
2013-02-11 18:13:00,51.9,35.3,29.88,ESE,108,0.0,0.0,53,0.00,,---,0.00,VWS V14.00,2013-02-12 02:13:00,
2013-02-11 18:18:00,51.4,34.9,29.88,ESE,108,0.0,0.0,53,0.00,,---,0.00,VWS V14.00,2013-02-12 02:18:00,
2013-02-11 18:23:00,51.0,35.0,29.88,ESE,108,0.0,0.0,54,0.00,,---,0.00,VWS V14.00,2013-02-12 02:23:00,
2013-02-11 18:28:00,50.7,34.7,29.88,ESE,108,0.0,0.0,54,0.00,,---,0.00,VWS V14.00,2013-02-12 02:28:00,
2013-02-11 18:33:00,50.2,34.7,29.89,ESE,108,0.0,0.0,55,0.00,,---,0.00,VWS V14.00,2013-02-12 02:33:00,
2013-02-11 18:38:00,49.8,34.8,29.89,ESE,108,0.0,0.0,56,0.00,,---,0.00,VWS V14.00,2013-02-12 02:38:00,
2013-02-11 18:43:00,49.4,34.4,29.89,ESE,108,0.0,0.0,56,0.00,,---,0.00,VWS V14.00,2013-02-12 02:43:00,
2013-02-11 18:48:00,49.1,34.5,29.89,ESE,108,0.0,0.0,57,0.00,,---,0.00,VWS V14.00,2013-02-12 02:48:00,
2013-02-11 18:53:00,48.8,34.7,29.89,ESE,108,0.0,0.0,58,0.00,,---,0.00,VWS V14.00,2013-02-12 02:53:00,
2013-02-11 18:58:00,48.3,34.2,29.89,ESE,108,0.0,0.0,58,0.00,,---,0.00,VWS V14.00,2013-02-12 02:58:00,
2013-02-11 19:03:00,48.0,34.4,29.89,ESE,108,0.0,0.0,59,0.00,,---,0.00,VWS V14.00,2013-02-12 03:03:00,
2013-02-11 19:08:00,47.7,34.5,29.90,ESE,108,0.0,0.0,60,0.00,,---,0.00,VWS V14.00,2013-02-12 03:08:00,
2013-02-11 19:13:00,47.3,34.5,29.90,ESE,108,0.0,0.0,61,0.00,,---,0.00,VWS V14.00,2013-02-12 03:13:00,
2013-02-11 19:18:00,46.8,34.1,29.90,ESE,108,0.0,0.0,61,0.00,,---,0.00,VWS V14.00,2013-02-12 03:18:00,
2013-02-11 19:23:00,46.5,34.2,29.90,ESE,108,0.0,0.0,62,0.00,,---,0.00,VWS V14.00,2013-02-12 03:23:00,
2013-02-11 19:28:00,46.2,33.9,29.90,ESE,108,0.0,0.0,62,0.00,,---,0.00,VWS V14.00,2013-02-12 03:28:00,
2013-02-11 19:33:00,46.0,34.1,29.90,ESE,108,0.0,0.0,63,0.00,,---,0.00,VWS V14.00,2013-02-12 03:33:00,
2013-02-11 19:38:00,45.8,33.9,29.90,ESE,108,0.0,0.0,63,0.00,,---,0.00,VWS V14.00,2013-02-12 03:38:00,
2013-02-11 19:43:00,45.8,33.9,29.90,ESE,108,0.0,0.0,63,0.00,,---,0.00,VWS V14.00,2013-02-12 03:43:00,
2013-02-11 19:48:00,45.8,33.9,29.90,ESE,108,0.0,0.0,63,0.00,,---,0.00,VWS V14.00,2013-02-12 03:48:00,
2013-02-11 19:53:00,45.8,33.9,29.90,ESE,108,0.0,0.0,63,0.00,,---,0.00,VWS V14.00,2013-02-12 03:53:00,
2013-02-11 19:57:00,45.7,33.8,29.90,ESE,108,0.0,0.0,63,0.00,,---,0.00,VWS V14.00,2013-02-12 03:57:00,
2013-02-11 20:02:00,45.7,33.8,29.90,ESE,108,0.0,0.0,63,0.00,,---,0.00,VWS V14.00,2013-02-12 04:02:00,
2013-02-11 20:07:00,45.5,33.7,29.90,ESE,108,0.0,0.0,63,0.00,,---,0.00,VWS V14.00,2013-02-12 04:07:00,
2013-02-11 20:12:00,45.4,33.6,29.90,ESE,108,0.0,0.0,63,0.00,,---,0.00,VWS V14.00,2013-02-12 04:12:00,
2013-02-11 20:17:00,45.2,33.4,29.90,ESE,108,0.0,0.0,63,0.00,,---,0.00,VWS V14.00,2013-02-12 04:17:00,
2013-02-11 20:22:00,45.2,33.4,29.91,ESE,108,0.0,0.0,63,0.00,,---,0.00,VWS V14.00,2013-02-12 04:22:00,
2013-02-11 20:27:00,45.1,33.3,29.91,ESE,108,0.0,0.0,63,0.00,,---,0.00,VWS V14.00,2013-02-12 04:27:00,
2013-02-11 20:32:00,45.1,33.3,29.91,ESE,108,0.0,0.0,63,0.00,,---,0.00,VWS V14.00,2013-02-12 04:32:00,
2013-02-11 20:37:00,44.9,33.1,29.91,ESE,108,0.0,0.0,63,0.00,,---,0.00,VWS V14.00,2013-02-12 04:37:00,
2013-02-11 20:42:00,44.6,33.2,29.91,ESE,108,0.0,0.0,64,0.00,,---,0.00,VWS V14.00,2013-02-12 04:42:00,
2013-02-11 20:47:00,44.3,32.9,29.91,ESE,108,0.0,0.0,64,0.00,,---,0.00,VWS V14.00,2013-02-12 04:47:00,
2013-02-11 20:52:00,44.1,33.1,29.91,ESE,108,0.0,0.0,65,0.00,,---,0.00,VWS V14.00,2013-02-12 04:52:00,
2013-02-11 20:57:00,43.9,32.9,29.91,ESE,108,0.0,0.0,65,0.00,,---,0.00,VWS V14.00,2013-02-12 04:57:00,
2013-02-11 21:00:00,43.8,33.2,29.91,ESE,108,0.0,0.0,66,0.00,,---,0.00,VWS V14.00,2013-02-12 05:00:00,
2013-02-11 21:05:00,43.5,32.9,29.92,ESE,108,0.0,0.0,66,0.00,,---,0.00,VWS V14.00,2013-02-12 05:05:00,
2013-02-11 21:10:00,43.2,33.4,29.92,ESE,108,0.0,0.0,68,0.00,,---,0.00,VWS V14.00,2013-02-12 05:10:00,
2013-02-11 21:15:00,42.9,33.1,29.92,ESE,108,0.0,0.0,68,0.00,,---,0.00,VWS V14.00,2013-02-12 05:15:00,
2013-02-11 21:20:00,42.8,33.0,29.92,ESE,108,0.0,0.0,68,0.00,,---,0.00,VWS V14.00,2013-02-12 05:20:00,
2013-02-11 21:25:00,42.5,33.1,29.92,ESE,108,0.0,0.0,69,0.00,,---,0.00,VWS V14.00,2013-02-12 05:25:00,
2013-02-11 21:30:00,42.3,32.9,29.92,ESE,108,0.0,0.0,69,0.00,,---,0.00,VWS V14.00,2013-02-12 05:30:00,
2013-02-11 21:35:00,42.2,33.5,29.92,ESE,108,0.0,0.0,71,0.00,,---,0.00,VWS V14.00,2013-02-12 05:35:00,
2013-02-11 21:40:00,41.9,33.2,29.92,ESE,108,0.0,0.0,71,0.00,,---,0.00,VWS V14.00,2013-02-12 05:40:00,
2013-02-11 21:45:00,41.6,32.9,29.92,ESE,108,0.0,0.0,71,0.00,,---,0.00,VWS V14.00,2013-02-12 05:45:00,
2013-02-11 21:50:00,41.5,32.8,29.92,ESE,108,0.0,0.0,71,0.00,,---,0.00,VWS V14.00,2013-02-12 05:50:00,
2013-02-11 21:55:00,41.2,32.9,29.92,ESE,108,0.0,0.0,72,0.00,,---,0.00,VWS V14.00,2013-02-12 05:55:00,
2013-02-11 22:00:00,41.1,33.1,29.92,ESE,108,0.0,0.0,73,0.00,,---,0.00,VWS V14.00,2013-02-12 06:00:00,
2013-02-11 22:05:00,40.9,33.3,29.92,ESE,108,0.0,0.0,74,0.00,,---,0.00,VWS V14.00,2013-02-12 06:05:00,
2013-02-11 22:10:00,40.8,33.2,29.92,ESE,108,0.0,0.0,74,0.00,,---,0.00,VWS V14.00,2013-02-12 06:10:00,
2013-02-11 22:15:00,40.8,33.2,29.92,ESE,108,0.0,0.0,74,0.00,,---,0.00,VWS V14.00,2013-02-12 06:15:00,
2013-02-11 22:20:00,40.6,33.0,29.92,ESE,108,0.0,0.0,74,0.00,,---,0.00,VWS V14.00,2013-02-12 06:20:00,
2013-02-11 22:25:00,40.3,32.7,29.92,ESE,108,0.0,0.0,74,0.00,,---,0.00,VWS V14.00,2013-02-12 06:25:00,
2013-02-11 22:30:00,40.2,32.9,29.92,ESE,108,0.0,0.0,75,0.00,,---,0.00,VWS V14.00,2013-02-12 06:30:00,
2013-02-11 22:35:00,40.1,32.8,29.92,ESE,108,0.0,0.0,75,0.00,,---,0.00,VWS V14.00,2013-02-12 06:35:00,
2013-02-11 22:40:00,39.9,32.6,29.92,ESE,108,0.0,0.0,75,0.00,,---,0.00,VWS V14.00,2013-02-12 06:40:00,
2013-02-11 22:45:00,39.8,32.9,29.92,ESE,108,0.0,0.0,76,0.00,,---,0.00,VWS V14.00,2013-02-12 06:45:00,
2013-02-11 22:50:00,39.6,32.7,29.93,ESE,108,0.0,0.0,76,0.00,,---,0.00,VWS V14.00,2013-02-12 06:50:00,
2013-02-11 22:55:00,39.3,32.7,29.93,ESE,108,0.0,0.0,77,0.00,,---,0.00,VWS V14.00,2013-02-12 06:55:00,
2013-02-11 23:00:00,39.2,32.6,29.93,ESE,108,0.0,0.0,77,0.00,,---,0.00,VWS V14.00,2013-02-12 07:00:00,
2013-02-11 23:05:00,39.1,32.8,29.93,ESE,108,0.0,0.0,78,0.00,,---,0.00,VWS V14.00,2013-02-12 07:05:00,
2013-02-11 23:09:00,38.9,32.3,29.93,ESE,108,0.0,0.0,77,0.00,,---,0.00,VWS V14.00,2013-02-12 07:09:00,
2013-02-11 23:14:00,38.8,32.5,29.93,ESE,108,0.0,0.0,78,0.00,,---,0.00,VWS V14.00,2013-02-12 07:14:00,
2013-02-11 23:19:00,38.8,32.5,29.93,ESE,108,0.0,0.0,78,0.00,,---,0.00,VWS V14.00,2013-02-12 07:19:00,
2013-02-11 23:24:00,38.6,32.7,29.93,ESE,108,0.0,0.0,79,0.00,,---,0.00,VWS V14.00,2013-02-12 07:24:00,
2013-02-11 23:30:00,38.6,32.7,29.93,ESE,108,0.0,0.0,79,0.00,,---,0.00,VWS V14.00,2013-02-12 07:30:00,
2013-02-11 23:35:00,38.5,32.6,29.93,ESE,108,0.0,0.0,79,0.00,,---,0.00,VWS V14.00,2013-02-12 07:35:00,
2013-02-11 23:40:00,38.3,32.4,29.93,ESE,108,0.0,0.0,79,0.00,,---,0.00,VWS V14.00,2013-02-12 07:40:00,
2013-02-11 23:45:00,38.3,32.4,29.93,ESE,108,0.0,0.0,79,0.00,,---,0.00,VWS V14.00,2013-02-12 07:45:00,
2013-02-11 23:50:00,38.2,32.6,29.94,ESE,108,0.0,0.0,80,0.00,,---,0.00,VWS V14.00,2013-02-12 07:50:00,
2013-02-11 23:55:00,38.2,32.6,29.94,ESE,108,0.0,0.0,80,0.00,,---,0.00,VWS V14.00,2013-02-12 07:55:00,